TimeCDT,TemperatureF,Dew PointF,Humidity,Sea Level PressureIn,VisibilityMPH,Wind Direction,Wind SpeedMPH,Gust SpeedMPH,PrecipitationIn,Events,Conditions,WindDirDegrees,DateUTC
12:10 AM,66.2,64.4,94,29.57,10.0,East,5.8,-,N/A,Thunderstorm,Mostly Cloudy,80,2013-05-21 05:10:00
12:58 AM,65.7,64.2,95,29.58,10.0,SE,8.1,-,0.01,,Mostly Cloudy,130,2013-05-21 05:58:00
1:44 AM,64.4,60.8,88,29.62,4.0,WSW,19.6,23.0,N/A,Rain,Light Rain,240,2013-05-21 06:44:00
1:49 AM,64.4,60.8,88,29.62,2.5,SW,15.0,23.0,N/A,Rain-Thunderstorm,Heavy Rain,230,2013-05-21 06:49:00
1:54 AM,62.6,60.8,94,29.62,3.0,WSW,11.5,23.0,N/A,Rain-Thunderstorm,Rain,250,2013-05-21 06:54:00
1:58 AM,62.8,61.0,94,29.62,5.0,WSW,12.7,-,0.14,Rain-Thunderstorm,Light Rain,250,2013-05-21 06:58:00
2:07 AM,62.6,60.8,94,29.61,10.0,West,9.2,-,N/A,,Overcast,260,2013-05-21 07:07:00
2:29 AM,62.6,60.8,94,29.62,10.0,SSW,5.8,-,N/A,Rain,Light Rain,200,2013-05-21 07:29:00
2:44 AM,62.6,60.8,94,29.60,6.0,SW,6.9,-,N/A,Rain,Rain,230,2013-05-21 07:44:00
2:49 AM,60.8,60.8,100,29.60,5.0,WSW,5.8,-,N/A,Rain,Light Rain,240,2013-05-21 07:49:00
2:58 AM,61.5,60.8,97,29.59,10.0,Calm,Calm,-,0.04,Rain,Light Rain,0,2013-05-21 07:58:00
3:09 AM,60.8,60.8,100,29.58,10.0,East,4.6,-,N/A,,Scattered Clouds,90,2013-05-21 08:09:00
3:58 AM,59.4,59.4,100,29.58,10.0,Calm,Calm,-,0.01,,Clear,0,2013-05-21 08:58:00
4:28 AM,59.0,59.0,100,29.59,4.0,South,4.6,-,N/A,,Mostly Cloudy,170,2013-05-21 09:28:00
4:38 AM,59.0,59.0,100,29.60,7.0,SSE,3.5,-,N/A,,Mostly Cloudy,160,2013-05-21 09:38:00
4:48 AM,59.0,59.0,100,29.59,2.0,SE,2.3,-,N/A,,Scattered Clouds,140,2013-05-21 09:48:00
4:53 AM,59.0,59.0,100,29.59,0.8,East,1.2,-,N/A,,Partly Cloudy,90,2013-05-21 09:53:00
4:58 AM,57.7,57.7,100,29.59,0.5,ESE,3.5,-,N/A,Fog,Fog,120,2013-05-21 09:58:00
5:18 AM,57.2,57.2,100,29.60,1.0,SE,2.3,-,N/A,,Clear,140,2013-05-21 10:18:00
5:23 AM,55.4,55.4,100,29.59,0.2,SE,3.5,-,N/A,Fog,Fog,130,2013-05-21 10:23:00
5:28 AM,55.4,55.4,100,29.59,0.2,ESE,3.5,-,N/A,Fog,Fog,120,2013-05-21 10:28:00
5:38 AM,55.4,55.4,100,29.60,0.2,SE,3.5,-,N/A,Fog,Fog,130,2013-05-21 10:38:00
5:43 AM,55.4,55.4,100,29.60,0.5,SE,3.5,-,N/A,Fog,Fog,130,2013-05-21 10:43:00
5:58 AM,55.4,55.4,100,29.60,0.8,East,4.6,-,N/A,,Clear,80,2013-05-21 10:58:00
6:03 AM,55.4,55.4,100,29.60,1.5,East,5.8,-,N/A,,Clear,90,2013-05-21 11:03:00
6:08 AM,55.4,55.4,100,29.60,1.5,East,5.8,-,N/A,,Clear,90,2013-05-21 11:08:00
6:13 AM,55.4,55.4,100,29.60,1.0,East,5.8,-,N/A,,Mist,100,2013-05-21 11:13:00
6:18 AM,55.4,55.4,100,29.60,1.0,East,4.6,-,N/A,,Mist,100,2013-05-21 11:18:00
6:23 AM,57.2,57.2,100,29.60,4.0,East,4.6,-,N/A,,Partly Cloudy,100,2013-05-21 11:23:00
6:38 AM,59.0,59.0,100,29.60,10.0,SE,2.3,-,N/A,,Mostly Cloudy,130,2013-05-21 11:38:00
6:58 AM,60.8,60.8,100,29.60,10.0,SE,3.5,-,N/A,,Mostly Cloudy,140,2013-05-21 11:58:00
7:58 AM,62.6,62.6,100,29.59,10.0,South,9.2,-,N/A,,Mostly Cloudy,170,2013-05-21 12:58:00
8:58 AM,66.2,62.6,88,29.60,10.0,South,13.8,-,N/A,,Overcast,170,2013-05-21 13:58:00
9:52 AM,64.4,60.8,88,29.62,4.0,South,9.2,-,N/A,Rain,Light Rain Showers,190,2013-05-21 14:52:00
9:58 AM,64.4,60.8,88,29.62,4.0,SSW,5.8,-,N/A,Rain,Light Rain Showers,200,2013-05-21 14:58:00
10:00 AM,64.4,60.8,88,29.62,6.0,South,5.8,-,N/A,Rain,Light Rain,190,2013-05-21 15:00:00
10:45 AM,64.4,62.6,94,29.63,7.0,South,8.1,-,N/A,,Mostly Cloudy,170,2013-05-21 15:45:00
10:58 AM,64.4,62.6,94,29.63,10.0,South,5.8,-,N/A,,Mostly Cloudy,180,2013-05-21 15:58:00
11:03 AM,66.2,64.4,94,29.62,10.0,South,6.9,-,N/A,,Scattered Clouds,190,2013-05-21 16:03:00
11:58 AM,69.8,60.8,73,29.60,10.0,SSW,12.7,17.3,N/A,,Mostly Cloudy,210,2013-05-21 16:58:00
12:58 PM,71.6,59.0,64,29.61,10.0,SW,13.8,-,N/A,,Mostly Cloudy,220,2013-05-21 17:58:00
1:58 PM,71.6,57.2,60,29.63,10.0,SW,9.2,18.4,N/A,,Overcast,220,2013-05-21 18:58:00
2:58 PM,69.8,59.0,68,29.64,10.0,SW,10.4,-,N/A,,Overcast,220,2013-05-21 19:58:00
3:58 PM,69.8,57.2,64,29.65,10.0,WSW,13.8,-,N/A,,Mostly Cloudy,240,2013-05-21 20:58:00
4:58 PM,71.6,57.2,60,29.65,10.0,SSW,10.4,-,N/A,,Mostly Cloudy,210,2013-05-21 21:58:00
5:58 PM,69.8,55.4,60,29.67,10.0,SW,12.7,-,N/A,,Mostly Cloudy,230,2013-05-21 22:58:00
6:58 PM,68.0,55.4,64,29.67,10.0,WSW,10.4,-,N/A,,Overcast,240,2013-05-21 23:58:00
7:58 PM,64.4,55.4,73,29.68,10.0,West,5.8,-,N/A,,Overcast,270,2013-05-22 00:58:00
8:58 PM,64.4,55.4,73,29.70,10.0,SSW,2.3,-,N/A,,Overcast,210,2013-05-22 01:58:00
9:58 PM,60.8,57.2,88,29.71,10.0,East,2.3,-,N/A,,Overcast,90,2013-05-22 02:58:00
10:58 PM,59.0,57.2,94,29.69,10.0,Calm,Calm,-,N/A,,Mostly Cloudy,0,2013-05-22 03:58:00
11:16 PM,55.4,55.4,100,29.68,1.0,Calm,Calm,-,N/A,,Partly Cloudy,0,2013-05-22 04:16:00
11:21 PM,55.4,55.4,100,29.68,6.0,Calm,Calm,-,N/A,,Partly Cloudy,0,2013-05-22 04:21:00
11:41 PM,53.6,53.6,100,29.68,1.8,Calm,Calm,-,N/A,,Clear,0,2013-05-22 04:41:00
11:46 PM,53.6,53.6,100,29.68,1.2,Calm,Calm,-,N/A,,Clear,0,2013-05-22 04:46:00
11:51 PM,55.4,55.4,100,29.68,2.5,Calm,Calm,-,N/A,,Clear,0,2013-05-22 04:51:00
11:56 PM,53.6,53.6,100,29.68,1.2,Calm,Calm,-,N/A,,Clear,0,2013-05-22 04:56:00
11:58 PM,51.8,51.8,100,29.69,0.8,Calm,Calm,-,N/A,,Clear,0,2013-05-22 04:58:00